Home > Weather > Bretten > Past weeks

Flag for Germany Weather for the Past 2 Weeks in Bretten, Baden-Württemberg, Germany

Now
36 °F

Light rain. Partly cloudy.


Feels Like: 29 °F
Forecast: 36 / 42 °F
Wind: 8 mph from West

Location: Stuttgart-Echterdingen

Current Time: Feb 10, 2016 at 4:32:41 AM

Latest Report: Feb 10, 2016 at 3:50 AM


Visibility: N/A

Pressure: 29.39 "Hg

Humidity: 93%

Dew point: 34 °F

Location of BrettenLocation

Historic Weather in Bretten — Graph

°F

Bretten Temperature Yesterday

Maximum temperature yesterday: 54 °F (at 1:20 PM)
Minimum temperature yesterday: 37 °F (at 11:20 PM)
Average temperature yesterday: 45 °F

High & Low Weather Summary for the Past Weeks

 TemperatureHumidityPressure
High61 °F (Jan 26, 2:20 PM)100% (Jan 28, 7:20 PM)30.45 "Hg (Jan 28, 7:20 PM)
Low32 °F (Feb 6, 4:20 AM)44% (Feb 6, 1:20 PM)29.15 "Hg (Feb 9, 5:50 PM)
Average45 °F80%30.06 "Hg
* Reported Jan 26 2:20 AM — Feb 10 2:20 AM, Bretten, Weather by CustomWeather, © 2016

Note: Actual official high and low records may vary slightly from our data, if they occured in-between our weather recording intervals... More about our weather records

Advertising

Bretten Weather History for the Previous 24 Hours

 ConditionsComfort  
Time TempWeatherWind HumidityBarometerVisibility
2:20 AM
Wed, Feb 10
37 °FPartly cloudy.8 mph87%29.36 "HgN/A
1:50 AM37 °FLight rain. Passing clouds.13 mph87%29.36 "HgN/A
1:20 AM37 °FLight rain. Partly cloudy.12 mph87%29.36 "HgN/A
12:20 AM37 °FPartly cloudy.10 mph93%29.36 "HgN/A
11:50 PM
Tue, Feb 9
39 °FLight rain. Partly cloudy.8 mph87%29.36 "HgN/A
11:20 PM37 °FLight rain. Partly cloudy.6 mph93%29.36 "HgN/A
10:20 PM39 °FPartly cloudy.9 mph87%29.33 "HgN/A
9:50 PM39 °FPartly cloudy.13 mph87%29.30 "HgN/A
9:20 PM39 °FSprinkles. Partly cloudy.24 mph87%29.30 "HgN/A
8:50 PM43 °FThunderstorms. Passing clouds.10 mph87%29.27 "Hg3 mi
8:20 PM43 °FLight rain. Partly cloudy.12 mph87%29.24 "HgN/A
7:50 PM45 °FLight rain. Partly cloudy.18 mph76%29.21 "HgN/A
7:20 PM43 °FLight rain. Overcast.18 mph87%29.24 "HgN/A
6:50 PM41 °FRain showers. Partly cloudy.31 mph87%29.24 "HgN/A
6:20 PM50 °FLight rain. Passing clouds.23 mph71%29.18 "HgN/A
5:50 PM52 °FLight rain. Passing clouds.22 mph67%29.15 "HgN/A
5:20 PM52 °FLight rain. Partly sunny.22 mph72%29.18 "HgN/A
4:50 PM50 °FLight rain. Partly sunny.18 mph76%29.18 "HgN/A
4:20 PM50 °FLight rain. Partly sunny.17 mph76%29.21 "HgN/A
3:20 PM50 °FLight rain. Partly sunny.20 mph76%29.27 "HgN/A
2:20 PM50 °FRain. Broken clouds.21 mph82%29.30 "HgN/A
1:50 PM52 °FLight rain. Partly sunny.20 mph72%29.30 "HgN/A
1:20 PM54 °FLight rain. Broken clouds.20 mph67%29.33 "HgN/A
12:50 PM52 °FPartly sunny.18 mph67%29.36 "HgN/A
12:20 PM50 °FPartly sunny.18 mph76%29.39 "HgN/A
11:50 AM48 °FPartly sunny.15 mph82%29.42 "HgN/A
11:20 AM48 °FPartly sunny.10 mph76%29.45 "HgN/A
10:50 AM46 °FPartly sunny.8 mph82%29.47 "HgN/A
10:20 AM45 °FPartly sunny.8 mph93%29.50 "HgN/A
9:50 AM45 °FLight rain. Partly sunny.8 mph87%29.53 "HgN/A
9:20 AM45 °FRain. Partly sunny.12 mph87%29.56 "HgN/A
8:50 AM45 °FLight rain. Partly sunny.9 mph81%29.59 "HgN/A
8:20 AM45 °FLight rain. Partly sunny.9 mph81%29.62 "HgN/A
7:50 AM41 °FPartly sunny.3 mph93%29.65 "HgN/A
7:20 AM41 °FPartly cloudy.5 mph93%29.65 "HgN/A
6:50 AM45 °FPartly cloudy.3 mph81%29.65 "HgN/A
6:20 AM43 °FPartly cloudy.6 mph87%29.68 "HgN/A
5:50 AM43 °FLight rain. Passing clouds.8 mph87%29.68 "HgN/A
5:20 AM43 °FPartly cloudy.9 mph87%29.68 "HgN/A
4:50 AM43 °FLight rain. Partly cloudy.10 mph81%29.71 "HgN/A
4:20 AM43 °FLight rain. Partly cloudy.14 mph81%29.71 "HgN/A
Weather by CustomWeather, © 2016

See weather overviewHow to use our weather pages